Regional Weather Roundup
Issued by NWS

Home | Current Version | Previous Version | Text Only | Print | Product List | Glossary Off
Versions: 1 2 3 4 5 6 7 8 9 10 11 12 13 14 15 16 17 18 19 20 21 22 23 24 25 26 27

000
ASUS45 KCYS 250910
RWRWY

WYOMING REGIONAL WEATHER ROUNDUP
NATIONAL WEATHER SERVICE CHEYENNE WY
200 AM MST SUN FEB 25 2018

NOTE:  "FAIR" INDICATES FEW OR NO CLOUDS BELOW 12,000 FEET
WITH NO SIGNIFICANT WEATHER AND/OR OBSTRUCTIONS TO VISIBILITY.

WYZ001-251000-
YELLOWSTONE NATIONAL PARK

CITY           SKY/WX    TMP DP  RH WIND       PRES   REMARKS
LK YELLOWSTONE   N/A     -3  -7  82 W3        29.75S
W YELLOWSTONE  NOT AVBL

$$
WYZ002>013-054>058-071-098>099-251000-
NORTHERN WYOMING

CITY           SKY/WX    TMP DP  RH WIND       PRES   REMARKS
JACKSON        LGT SNOW  14  11  87 SW5       29.84S FOG     WCI   6
CODY           FAIR      23   7  50 W15G24    29.74F WCI  10
GREYBULL       FAIR       8   3  80 S3        29.80S
WORLAND        FAIR       3  -1  83 CALM      29.79S
SHERIDAN       CLOUDY    15   5  64 CALM      29.75R
BUFFALO        MOCLDY    18   0  45 NW7       29.70R WCI   9
GILLETTE       MOCLDY    16   5  62 SW10      29.71S WCI   4
HULETT         PTSUNNY   18   5  57 MISG      29.72S
NEWCASTLE      FAIR       5  -4  66 CALM      29.76R

$$
WYZ014>020-022>026-101>103-251000-
CENTRAL WYOMING

CITY           SKY/WX    TMP DP  RH WIND       PRES   REMARKS
BIG PINEY      FAIR      -7 -10  87 E6        29.84R WCI -20
PINEDALE       CLOUDY    -2  -6  84 CALM      29.85R
DUBOIS           N/A    N/A N/A N/A MISG        N/A
LANDER         FAIR      15  -1  49 VRB6      29.78R WCI   6
RIVERTON       FAIR      12  -2  53 W14       29.78S WCI  -3
CASPER         FAIR      18   9  68 SW14      29.78R WCI   4
DOUGLAS        FAIR      19   6  57 VRB3      29.74F

$$
WYZ021-027>030-104>119-251000-
SOUTHERN WYOMING

CITY           SKY/WX    TMP DP  RH WIND       PRES   REMARKS
EVANSTON       FAIR      11   8  88 SW12      29.88R WCI  -3
ROCK SPRINGS   FAIR      12   5  73 W20       29.86R WCI  -6
DIXON          FLURRIES  18  13  82 SW10G16   29.91R WCI   6
RAWLINS        CLOUDY    14   8  77 SW28G38   29.80R WCI  -6
SARATOGA       FAIR      16   7  67 S7        29.82S WCI   6
LARAMIE        MOCLDY    10   2  69 S5        29.76S WCI   2
CHEYENNE       FAIR      19   6  57 W18G25    29.78S WCI   4
TORRINGTON     FAIR      25  11  55 W13       29.79S WCI  14
PINE BLUFFS    FAIR      21   9  58 W12G17    29.81S WCI   9

$$




USA.gov is the U.S. government's official web portal to all federal, state and local government web resources and services.